SV2MJJ Weather Reports


time (UTC)temp
C
wind
direction
speed
KPH
gust
KPH
rain 1hr
cm
rain 24hr
cm
rain mn
cm
humidity
%
barometer
mb
20200708135047 28 174 1.6 9.7 0.00 0.00 0.00 41 1010.0
20200708134550 28 174 1.6 8.0 0.00 0.00 0.00 40 1010.0
20200708134057 28 174 1.6 6.4 0.00 0.00 0.00 41 1010.1
20200708133604 27 174 0.0 8.0 0.00 0.00 0.00 41 1010.2
20200708133038 27 174 3.2 9.7 0.00 0.00 0.00 39 1010.2
20200708132543 28 172 3.2 9.7 0.00 0.00 0.00 40 1010.2
20200708132052 27 172 1.6 9.7 0.00 0.00 0.00 41 1010.2
20200708131600 27 172 0.0 9.7 0.00 0.00 0.00 40 1010.3
20200708131100 27 172 6.4 11.3 0.00 0.00 0.00 39 1010.3
20200708130537 27 171 4.8 11.3 0.00 0.00 0.00 40 1010.3
20200708130043 28 169 3.2 11.3 0.00 0.00 0.00 40 1010.3
20200708125544 28 171 0.0 12.9 0.00 0.00 0.00 41 1010.2
20200708125057 28 168 4.8 12.9 0.00 0.00 0.00 40 1010.2
20200708124602 27 170 0.0 9.7 0.00 0.00 0.00 43 1010.2
20200708124039 27 170 1.6 11.3 0.00 0.00 0.00 44 1010.1
20200708123542 27 165 1.6 9.7 0.00 0.00 0.00 43 1010.1
20200708123044 27 165 0.0 11.3 0.00 0.00 0.00 42 1010.1
20200708122533 27 165 3.2 12.9 0.00 0.00 0.00 42 1010.1
20200708122051 27 160 1.6 11.3 0.00 0.00 0.00 43 1010.3
20200708121538 28 150 0.0 11.3 0.00 0.00 0.00 42 1010.2
20200708121041 28 146 1.6 12.9 0.00 0.00 0.00 41 1010.2
20200708120546 28 152 1.6 12.9 0.00 0.00 0.00 40 1010.2
20200708120045 28 163 1.6 12.9 0.00 0.00 0.00 40 1010.2
20200708115550 28 163 4.8 12.9 0.00 0.00 0.00 41 1010.3
20200708115052 28 157 0.0 11.3 0.00 0.00 0.00 43 1010.2
20200708114551 27 158 1.6 12.9 0.00 0.00 0.00 43 1010.3
20200708114039 27 165 4.8 16.1 0.00 0.00 0.00 44 1010.3
20200708113547 27 172 4.8 14.5 0.00 0.00 0.00 45 1010.4
20200708113048 27 183 0.0 11.3 0.00 0.00 0.00 45 1010.4
20200708112550 27 185 1.6 11.3 0.00 0.00 0.00 44 1010.4
20200708112049 27 187 0.0 12.9 0.00 0.00 0.00 43 1010.4
20200708111535 27 187 3.2 12.9 0.00 0.00 0.00 44 1010.4
20200708111033 27 203 6.4 8.0 0.00 0.00 0.00 44 1010.5
20200708110539 27 211 0.0 8.0 0.00 0.00 0.00 43 1010.4
20200708110042 27 213 1.6 8.0 0.00 0.00 0.00 44 1010.5
20200708105543 27 216 1.6 12.9 0.00 0.00 0.00 44 1010.5
20200708105046 27 232 3.2 12.9 0.00 0.00 0.00 43 1010.5
20200708104550 27 232 0.0 8.0 0.00 0.00 0.00 45 1010.4
20200708104037 26 240 0.0 8.0 0.00 0.00 0.00 45 1010.4
20200708103538 26 244 1.6 6.4 0.00 0.00 0.00 46 1010.5
20200708103037 26 247 0.0 1.6 0.00 0.00 0.00 46 1010.4
20200708102543 26 248 0.0 1.6 0.00 0.00 0.00 46 1010.5
20200708102042 26 248 0.0 4.8 0.00 0.00 0.00 47 1010.6
20200708101548 26 248 0.0 4.8 0.00 0.00 0.00 47 1010.5
20200708101053 26 249 0.0 1.6 0.00 0.00 0.00 48 1010.5
20200708100556 25 250 0.0 3.2 0.00 0.00 0.00 49 1010.5
20200708100058 25 250 0.0 12.9 0.00 0.00 0.00 50 1010.5
20200708095535 25 250 6.4 12.9 0.00 0.00 0.00 49 1010.5
20200708095049 25 252 0.0 17.7 0.00 0.00 0.00 50 1010.6
20200708094553 25 252 9.7 17.7 0.00 0.00 0.00 49 1010.6
20200708094056 25 261 0.0 6.4 0.00 0.00 0.00 49 1010.5
20200708093601 25 261 0.0 9.7 0.00 0.00 0.00 49 1010.5
20200708093103 25 261 1.6 9.7 0.00 0.00 0.00 49 1010.6
20200708092538 25 261 0.0 9.7 0.00 0.00 0.00 49 1010.5
20200708092042 25 261 1.6 9.7 0.00 0.00 0.00 50 1010.6
20200708091548 24 261 0.0 3.2 0.00 0.00 0.00 51 1010.6
20200708091052 24 261 0.0 3.2 0.00 0.00 0.00 50 1010.5
20200708090538 24 261 0.0 9.7 0.00 0.00 0.00 50 1010.6
20200708090042 24 261 0.0 9.7 0.00 0.00 0.00 49 1010.7
20200708085549 24 261 0.0 11.3 0.00 0.00 0.00 51 1010.6
20200708085046 23 261 0.0 11.3 0.00 0.00 0.00 50 1010.6
20200708084552 24 261 0.0 6.4 0.00 0.00 0.00 50 1010.6
20200708084052 24 261 0.0 0.0 0.00 0.00 0.00 50 1010.6
20200708083533 24 261 0.0 0.0 0.00 0.00 0.00 51 1010.5
20200708083038 24 261 0.0 1.6 0.00 0.00 0.00 51 1010.6
20200708082548 24 261 0.0 1.6 0.00 0.00 0.00 52 1010.6
20200708082049 23 261 0.0 0.0 0.00 0.00 0.00 52 1010.6
20200708081535 23 261 0.0 1.6 0.00 0.00 0.00 53 1010.6
20200708081036 23 261 0.0 1.6 0.00 0.00 0.00 53 1010.5
20200708080540 23 261 0.0 1.6 0.00 0.00 0.00 52 1010.4
20200708080042 23 261 0.0 4.8 0.00 0.00 0.00 52 1010.5
20200708075550 23 261 0.0 4.8 0.00 0.00 0.00 54 1010.5
20200708075035 23 261 0.0 0.0 0.00 0.00 0.00 54 1010.4
20200708074535 23 261 0.0 0.0 0.00 0.00 0.00 54 1010.3
20200708074038 23 261 0.0 0.0 0.00 0.00 0.00 55 1010.3
20200708073545 23 261 0.0 0.0 0.00 0.00 0.00 54 1010.2
20200708073046 23 261 0.0 0.0 0.00 0.00 0.00 55 1010.3
20200708072555 22 261 0.0 1.6 0.00 0.00 0.00 55 1010.3
20200708072058 22 261 0.0 1.6 0.00 0.00 0.00 55 1010.3
20200708071559 22 261 0.0 0.0 0.00 0.00 0.00 56 1010.2
20200708071048 22 261 0.0 0.0 0.00 0.00 0.00 55 1010.1
20200708070554 22 261 0.0 1.6 0.00 0.00 0.00 55 1010.1
20200708070058 22 261 0.0 1.6 0.00 0.00 0.00 55 1010.1
20200708065533 21 261 0.0 0.0 0.00 0.00 0.00 55 1010.1
20200708065042 21 261 0.0 1.6 0.00 0.00 0.00 56 1010.2
20200708064549 21 261 0.0 4.8 0.00 0.00 0.00 57 1010.2
20200708064051 21 261 0.0 6.4 0.00 0.00 0.00 57 1010.2
20200708063536 21 261 3.2 9.7 0.00 0.00 0.00 55 1010.1
20200708063039 21 261 4.8 9.7 0.00 0.00 0.00 55 1010.1
20200708062542 21 261 0.0 1.6 0.00 0.00 0.00 56 1010.1
20200708062034 21 261 0.0 1.6 0.00 0.00 0.00 56 1010.1
20200708061541 21 261 0.0 1.6 0.00 0.00 0.00 56 1010.0
20200708061043 21 261 0.0 6.4 0.00 0.00 0.00 58 1010.0
20200708060546 21 261 1.6 6.4 0.00 0.00 0.00 58 1010.0
20200708060049 21 261 0.0 4.8 0.00 0.00 0.00 58 1010.0
20200708055535 20 262 0.0 11.3 0.00 0.00 0.00 59 1010.0
20200708055052 20 261 0.0 11.3 0.00 0.00 0.00 59 1010.0
20200708054542 20 262 0.0 11.3 0.00 0.00 0.00 60 1010.0
20200708054047 20 263 3.2 11.3 0.00 0.00 0.00 60 1010.0
20200708053547 20 264 1.6 11.3 0.00 0.00 0.00 60 1009.9
20200708053044 20 266 0.0 11.3 0.00 0.00 0.00 59 1009.8
20200708052552 20 267 1.6 9.7 0.00 0.00 0.00 60 1009.8
20200708052034 20 267 0.0 11.3 0.00 0.00 0.00 59 1009.7
20200708051536 20 267 3.2 11.3 0.00 0.00 0.00 60 1009.6
20200708051039 20 267 0.0 11.3 0.00 0.00 0.00 60 1009.6
20200708050547 20 267 3.2 11.3 0.00 0.00 0.00 59 1009.5
20200708050047 20 267 3.2 12.9 0.00 0.00 0.00 62 1009.5
20200708045552 20 268 6.4 11.3 0.00 0.00 0.00 61 1009.4
20200708045052 20 272 1.6 8.0 0.00 0.00 0.00 61 1009.4
20200708044538 20 275 1.6 8.0 0.00 0.00 0.00 62 1009.3
20200708044039 20 275 0.0 8.0 0.00 0.00 0.00 63 1009.3
20200708043547 20 275 0.0 12.9 0.00 0.00 0.00 64 1009.3
20200708043050 20 277 3.2 12.9 0.00 0.00 0.00 64 1009.2
20200708042552 20 277 6.4 12.9 0.00 0.00 0.00 66 1009.1
20200708042055 20 277 4.8 12.9 0.00 0.00 0.00 65 1009.1
20200708041534 20 279 4.8 9.7 0.00 0.00 0.00 64 1009.0
20200708041053 20 279 0.0 0.0 0.00 0.00 0.00 63 1009.0
20200708040546 20 279 0.0 8.0 0.00 0.00 0.00 62 1009.0
20200708040059 19 279 3.2 8.0 0.00 0.00 0.00 61 1009.0
20200708035535 19 279 4.8 8.0 0.00 0.00 0.00 63 1008.7
20200708035037 19 279 0.0 8.0 0.00 0.00 0.00 63 1008.6
20200708034545 19 279 3.2 11.3 0.00 0.00 0.00 63 1008.6
20200708034051 19 279 6.4 11.3 0.00 0.00 0.00 63 1008.5
20200708033540 19 279 4.8 8.0 0.00 0.00 0.00 67 1008.5
20200708033039 19 279 1.6 6.4 0.00 0.00 0.00 69 1008.5
20200708032546 19 279 0.0 6.4 0.00 0.00 0.00 69 1008.4
20200708032051 19 279 0.0 11.3 0.00 0.00 0.00 70 1008.4
20200708031533 18 279 3.2 11.3 0.00 0.00 0.00 70 1008.2
20200708031036 18 279 1.6 11.3 0.00 0.00 0.00 72 1008.2
20200708030544 18 279 6.4 11.3 0.00 0.00 0.00 72 1008.2
20200708030042 19 279 6.4 12.9 0.00 0.00 0.00 71 1008.1
20200708025550 20 279 9.7 12.9 0.00 0.00 0.00 69 1008.0
20200708025054 20 279 4.8 12.9 0.00 0.00 0.00 68 1008.1
20200708024602 20 279 6.4 12.9 0.00 0.00 0.00 67 1007.8
20200708024037 20 279 3.2 9.7 0.00 0.00 0.00 69 1007.9
20200708023542 19 279 0.0 0.0 0.00 0.00 0.00 71 1007.8
20200708023049 19 279 0.0 0.0 0.00 0.00 0.00 71 1007.7
20200708022551 19 279 0.0 0.0 0.00 0.00 0.00 73 1007.8
20200708022034 19 279 0.0 0.0 0.00 0.00 0.00 73 1007.8
20200708021545 19 279 0.0 0.0 0.00 0.00 0.00 74 1007.8
20200708021034 19 279 0.0 0.0 0.00 0.00 0.00 74 1007.7
20200708020535 20 279 0.0 4.8 0.00 0.00 0.00 73 1007.8
20200708020042 20 279 0.0 6.4 0.00 0.00 0.00 73 1007.8
20200708015548 20 279 0.0 6.4 0.00 0.00 0.00 72 1007.8
20200708015048 20 279 0.0 0.0 0.00 0.00 0.00 71 1007.8
20200708014534 20 279 0.0 0.0 0.00 0.00 0.00 70 1007.8
20200708014042 20 279 0.0 0.0 0.00 0.00 0.00 69 1007.8
20200708013540 20 279 0.0 0.0 0.00 0.00 0.00 68 1007.8
20200708013046 20 279 0.0 0.0 0.00 0.00 0.00 68 1007.8
20200708012550 20 279 0.0 0.0 0.00 0.00 0.00 69 1007.8
20200708012050 20 279 0.0 6.4 0.00 0.00 0.00 69 1007.8
20200708011551 20 279 0.0 11.3 0.00 0.00 0.00 68 1007.7
20200708011036 20 279 3.2 11.3 0.00 0.00 0.00 69 1007.7
20200708010545 20 278 0.0 1.6 0.00 0.00 0.00 69 1007.6
20200708010044 20 278 0.0 0.0 0.00 0.10 0.00 69 1007.5
20200708005548 20 278 0.0 4.8 0.00 0.10 0.00 69 1007.4
20200708005033 20 278 0.0 6.4 0.00 0.10 0.00 70 1007.4
20200708004541 20 278 0.0 11.3 0.00 0.10 0.00 70 1007.5
20200708004040 20 278 1.6 11.3 0.00 0.10 0.00 70 1007.4
20200708003542 20 278 6.4 14.5 0.00 0.10 0.00 70 1007.4
20200708003045 20 281 6.4 11.3 0.00 0.10 0.00 69 1007.3
20200708002548 20 281 6.4 14.5 0.00 0.10 0.00 69 1007.3
20200708002053 20 282 4.8 14.5 0.00 0.10 0.00 69 1007.3
20200708001601 20 282 1.6 17.7 0.00 0.10 0.00 69 1007.3
20200708001034 20 282 9.7 17.7 0.00 0.10 0.00 72 1007.1
20200708000541 20 266 9.7 17.7 0.00 0.10 0.00 72 1007.1
20200708000045 20 296 0.0 9.7 0.00 0.10 0.00 72 1007.1
20200707235533 20 296 4.8 17.7 0.00 0.10 0.00 72 1006.9
20200707235057 20 296 9.7 24.1 0.00 0.10 0.00 72 1006.9
20200707234540 20 272 12.9 24.1 0.00 0.10 0.00 72 1006.8
20200707234046 20 265 11.3 25.7 0.00 0.10 0.00 72 1006.8
20200707233546 20 257 16.1 25.7 0.00 0.10 0.00 71 1006.8
20200707233048 20 264 17.7 24.1 0.00 0.10 0.00 71 1006.8
20200707232533 20 265 11.3 17.7 0.00 0.10 0.00 71 1006.9
20200707232040 20 263 9.7 19.3 0.00 0.10 0.00 71 1007.0
20200707231543 20 263 12.9 19.3 0.00 0.10 0.00 71 1006.9
20200707231048 20 263 11.3 16.1 0.00 0.10 0.00 71 1007.1
20200707230533 20 265 11.3 17.7 0.00 0.10 0.00 72 1007.2
20200707230037 20 267 9.7 17.7 0.00 0.10 0.00 71 1007.2
20200707225545 20 269 9.7 17.7 0.00 0.10 0.00 71 1007.2
20200707225048 20 267 11.3 17.7 0.00 0.10 0.00 71 1007.0
20200707224553 20 271 9.7 14.5 0.00 0.10 0.00 71 1006.9
20200707224056 20 273 6.4 16.1 0.00 0.10 0.00 71 1006.8
20200707223559 20 271 4.8 19.3 0.00 0.10 0.00 72 1006.8
20200707223034 20 273 11.3 19.3 0.00 0.10 0.00 71 1006.8
20200707222537 20 286 11.3 16.1 0.00 0.10 0.00 72 1006.7
20200707222044 20 275 8.0 14.5 0.00 0.10 0.00 72 1006.7
20200707221551 20 276 8.0 16.1 0.00 0.10 0.00 71 1006.7
20200707221103 21 284 8.0 16.1 0.00 0.10 0.00 71 1006.7
20200707220535 21 79 4.8 12.9 0.00 0.10 0.00 71 1006.7
20200707220042 21 93 0.0 6.4 0.00 0.10 0.00 72 1006.7
20200707215548 21 93 0.0 6.4 0.00 0.10 0.00 72 1006.7
20200707215050 21 94 1.6 9.7 0.00 0.10 0.00 72 1006.6
20200707214537 21 93 1.6 9.7 0.00 0.10 0.00 72 1006.7
20200707214043 21 96 4.8 9.7 0.00 0.10 0.00 71 1006.6
20200707213545 21 98 4.8 9.7 0.00 0.10 0.00 70 1006.6
20200707213049 21 101 3.2 9.7 0.00 0.10 0.00 72 1006.5
20200707212538 21 101 0.0 11.3 0.00 0.10 0.00 72 1006.4
20200707212041 22 102 1.6 11.3 0.00 0.10 0.00 71 1006.3
20200707211544 22 105 6.4 11.3 0.00 0.10 0.00 68 1006.3
20200707211051 22 100 0.0 6.4 0.00 0.10 0.00 69 1006.3
20200707210559 22 101 0.0 0.0 0.00 0.10 0.00 66 1006.2
20200707210054 22 101 0.0 0.0 0.00 0.10 0.03 66 1006.0
20200707205543 22 101 0.0 0.0 0.00 0.10 0.03 66 1006.0
20200707205045 22 101 0.0 0.0 0.00 0.10 0.03 65 1006.0
20200707204548 23 101 0.0 0.0 0.00 0.10 0.03 66 1005.9
20200707204048 23 101 0.0 6.4 0.00 0.10 0.03 65 1005.8
20200707203553 23 101 1.6 6.4 0.00 0.10 0.03 62 1005.8
20200707203058 23 101 0.0 11.3 0.00 0.10 0.03 61 1005.7
20200707202556 23 101 3.2 11.3 0.00 0.10 0.03 61 1005.6
20200707202033 23 103 0.0 0.0 0.00 0.10 0.03 60 1005.4
20200707201541 23 103 0.0 0.0 0.00 0.10 0.03 60 1005.5
20200707201042 23 103 0.0 0.0 0.00 0.10 0.03 61 1005.4
20200707200548 23 103 0.0 3.2 0.00 0.10 0.03 60 1005.2
20200707200048 23 103 0.0 6.4 0.00 0.10 0.03 60 1005.0
20200707195536 23 103 0.0 9.7 0.00 0.10 0.03 61 1004.9
20200707195036 23 102 3.2 9.7 0.00 0.10 0.03 61 1004.8
20200707194538 23 102 0.0 4.8 0.00 0.10 0.03 60 1004.8
20200707194038 23 102 0.0 9.7 0.00 0.10 0.03 60 1004.7
20200707193549 24 102 3.2 9.7 0.00 0.10 0.03 60 1004.7
20200707193033 24 102 0.0 6.4 0.00 0.10 0.03 59 1004.6
20200707192551 24 102 1.6 6.4 0.00 0.10 0.03 59 1004.5
20200707192105 24 102 4.8 11.3 0.00 0.10 0.03 57 1004.5
20200707191613 25 102 4.8 11.3 0.00 0.10 0.03 57 1004.4
20200707191057 25 101 0.0 11.3 0.00 0.10 0.03 57 1004.3
20200707190543 25 101 6.4 11.3 0.00 0.10 0.03 57 1004.2
20200707190046 25 94 6.4 11.3 0.00 0.10 0.03 56 1004.1
20200707185540 25 88 0.0 0.0 0.00 0.10 0.03 55 1004.0
20200707185036 26 88 0.0 6.4 0.00 0.10 0.03 54 1003.8
20200707184537 26 88 0.0 6.4 0.00 0.10 0.03 54 1003.7
20200707184047 26 88 0.0 3.2 0.00 0.10 0.03 55 1003.6
20200707183607 26 88 0.0 3.2 0.00 0.10 0.03 56 1003.6
20200707183053 26 88 0.0 0.0 0.00 0.10 0.03 57 1003.6
20200707182542 27 88 0.0 0.0 0.00 0.10 0.03 58 1003.6
20200707182047 27 88 0.0 0.0 0.00 0.10 0.03 59 1003.4
20200707181548 27 88 0.0 0.0 0.00 0.10 0.03 59 1003.4
20200707181049 27 88 0.0 0.0 0.00 0.10 0.03 59 1003.2
20200707180550 27 88 0.0 0.0 0.00 0.10 0.03 59 1003.1
20200707180050 27 88 0.0 0.0 0.00 0.10 0.03 58 1003.1
20200707175537 27 88 0.0 3.2 0.00 0.10 0.03 58 1003.0
20200707175050 27 88 0.0 0.0 0.00 0.10 0.03 58 1003.0
20200707174552 27 88 0.0 0.0 0.00 0.10 0.03 57 1003.0
20200707174057 27 88 0.0 6.4 0.00 0.10 0.03 57 1002.8
20200707173553 27 88 0.0 6.4 0.00 0.10 0.03 57 1002.6
20200707173035 28 88 3.2 6.4 0.00 0.10 0.03 56 1002.6
20200707172542 28 88 0.0 0.0 0.00 0.10 0.03 55 1002.5
20200707172043 28 88 0.0 0.0 0.00 0.10 0.03 55 1002.3
20200707171601 28 88 0.0 1.6 0.00 0.10 0.03 55 1002.3
20200707171057 29 88 0.0 1.6 0.00 0.10 0.03 54 1002.3
20200707170540 29 88 0.0 1.6 0.00 0.10 0.03 54 1002.3
20200707170056 29 88 0.0 4.8 0.00 0.10 0.03 53 1002.3
20200707165542 29 88 0.0 4.8 0.00 0.10 0.03 53 1002.3
20200707165056 29 88 0.0 1.6 0.00 0.10 0.03 54 1002.2
20200707164546 29 88 0.0 9.7 0.00 0.10 0.03 53 1002.3
20200707164038 30 88 1.6 11.3 0.00 0.10 0.03 53 1002.1
20200707163542 30 85 0.0 11.3 0.00 0.10 0.03 53 1002.1
20200707163048 30 76 0.0 9.7 0.00 0.10 0.03 52 1002.0
20200707162552 30 71 0.0 3.2 0.00 0.10 0.03 48 1002.0
20200707162038 30 71 0.0 8.0 0.00 0.10 0.03 47 1001.7
20200707161533 30 72 3.2 9.7 0.00 0.10 0.03 47 1001.6
20200707161048 31 63 1.6 9.7 0.00 0.10 0.03 47 1001.5
20200707160554 31 61 1.6 12.9 0.00 0.10 0.03 46 1001.4
20200707160056 31 60 3.2 12.9 0.00 0.10 0.03 46 1001.4
20200707155535 31 63 4.8 9.7 0.00 0.10 0.03 45 1001.3
20200707155040 31 65 4.8 12.9 0.00 0.10 0.03 45 1001.1
20200707154544 31 63 4.8 16.1 0.00 0.10 0.03 45 1001.0
20200707154042 31 41 4.8 16.1 0.00 0.10 0.03 45 1000.9
20200707153545 31 48 1.6 11.3 0.00 0.10 0.03 45 1000.9
20200707153050 31 51 0.0 14.5 0.00 0.10 0.03 45 1000.9
20200707152601 31 51 6.4 16.1 0.00 0.10 0.03 45 1000.9
20200707152101 31 44 4.8 16.1 0.00 0.10 0.03 46 1000.9
20200707151547 31 37 6.4 16.1 0.00 0.10 0.03 45 1001.0
20200707151045 31 54 4.8 11.3 0.00 0.10 0.03 45 1001.0
20200707150549 31 59 3.2 11.3 0.00 0.10 0.03 46 1000.9
20200707150052 31 49 0.0 11.3 0.00 0.10 0.03 46 1001.0
20200707145538 31 47 1.6 14.5 0.00 0.10 0.03 46 1001.0
20200707145036 31 47 3.2 14.5 0.00 0.10 0.03 45 1001.0
20200707144543 31 50 3.2 11.3 0.00 0.10 0.03 46 1001.1
20200707144058 31 59 1.6 12.9 0.00 0.10 0.03 45 1001.1
20200707143600 31 47 1.6 14.5 0.00 0.10 0.03 45 1001.0
20200707143049 31 53 3.2 14.5 0.00 0.10 0.03 45 1001.1
20200707142551 31 61 3.2 14.5 0.00 0.10 0.03 44 1001.1
20200707142038 31 75 3.2 17.7 0.00 0.10 0.03 45 1001.1
20200707141534 31 60 8.0 17.7 0.00 0.10 0.03 44 1001.1
20200707141038 31 63 3.2 14.5 0.00 0.10 0.03 45 1001.1
20200707140546 31 63 3.2 14.5 0.00 0.10 0.03 46 1001.1
20200707140051 31 54 4.8 14.5 0.00 0.10 0.03 45 1001.1